This demonstration page uses our WeatherBlox Daily Observations layout. Learn more.

Left ArrowRight Arrow

39.08367, -84.50855

Hourly Observations for December 26, 2016

Temp ( °F °C ) Dew Point ( °F °C ) Humidity (%) Winds ( mph kmh ) Pressure ( in mb ) Visibility ( mi km ) Precip ( " mm )
12:34 am 00:34 Cloudy with Mist and Fog 48 9 48 9 100 100 Calm 30.30 1026 1 2 0.00 0.00
12:53 am 00:53 Cloudy with Mist and Fog 50 10 50 10 100 100 Calm 30.28 1026 2 3 0.00 0.00
1:23 am 01:23 Cloudy with Mist and Fog 51 10.6 51 10.6 100 100 Calm 30.27 1025 3 5 0.00 0.00
1:35 am 01:35 Cloudy with Mist and Fog 51 10.6 51 10.6 100 100 W 3 6 30.27 1025 3 4 0.00 0.00
1:53 am 01:53 Cloudy with Mist and Fog 50 10 50 10 100 100 W 3 6 30.27 1025 2 3 0.00 0.00
2:16 am 02:16 Cloudy with Mist and Fog 50 10 50 10 100 100 Calm 30.27 1025 1 2 0.00 0.00
2:25 am 02:25 Cloudy with Mist and Fog 50 10 50 10 100 100 SSW 5 7 30.27 1025 3 5 0.00 0.00
2:51 am 02:51 Mostly Cloudy with Mist and Fog 52 11 52 11 100 100 SSW 7 11 30.27 1025 5 8 0.00 0.00
2:53 am 02:53 Cloudy with Mist and Fog 51 10.6 51 10.6 100 100 SSW 7 11 30.27 1025 5 8 0.00 0.00
3:53 am 03:53 Mostly Cloudy 52 11.1 52 11.1 100 100 SSW 7 11 30.25 1024 8 13 0.00 0.00
4:53 am 04:53 Partly Cloudy with Mist and Fog 50 10 50 10 100 100 SW 6 9 30.24 1024 6 10 0.00 0.00
5:53 am 05:53 Mostly Cloudy 55 12.8 54 12.2 96 96 S 10 17 30.22 1023 10 16 0.00 0.00
6:53 am 06:53 Mostly Cloudy 58 14.4 55 12.8 90 90 S 13 20 30.22 1023 10 16 0.00 0.00
7:53 am 07:53 Cloudy 60 15.6 56 13.3 86 86 S 12 19 30.22 1023 10 16 0.00 0.00
8:46 am 08:46 Partly Cloudy with Heavy Rain 59 15 57 14 94 94 S 13 20 30.21 1023 2 3 0.00 0.00
8:53 am 08:53 Cloudy with Heavy Rain 59 15 57 13.9 93 93 S 13 20 30.23 1024 2 3 0.13 3.30
9:05 am 09:05 Cloudy with Light Rain 59 15 57 13.9 93 93 S 12 19 30.21 1023 7 11 0.09 2.29
9:07 am 09:07 Cloudy with Light Rain 59 15 57 13.9 93 93 S 10 17 30.21 1023 7 11 0.09 2.29
9:53 am 09:53 Cloudy 60 15.6 58 14.4 93 93 S 12 19 30.21 1023 10 16 0.09 2.29
10:53 am 10:53 Cloudy 63 17.2 59 15 87 87 S 15 24 30.19 1022 10 16 0.01 0.25
11:53 am 11:53 Mostly Cloudy 67 19.4 59 15 76 76 S 17 28 30.14 1021 10 16 0.00 0.00
12:53 pm 12:53 Mostly Sunny 71 21.7 60 15.6 68 68 SSW 22 35 30.09 1019 10 16 0.00 0.00
1:53 pm 13:53 Mostly Cloudy 72 22.2 60 15.6 66 66 SSW 23 37 30.07 1018 10 16 0.00 0.00
2:53 pm 14:53 Mostly Cloudy 72 22.2 60 15.6 66 66 SSW 21 33 30.05 1018 10 16 0.00 0.00
3:53 pm 15:53 Mostly Cloudy 72 22.2 59 15 64 64 SSW 21 33 30.03 1017 10 16 0.00 0.00
4:53 pm 16:53 Cloudy 70 21.1 60 15.6 71 71 SW 16 26 30.06 1018 10 16 0.00 0.03
5:53 pm 17:53 Cloudy with Light Rain 64 17.8 62 16.7 93 93 SW 7 11 30.04 1017 6 10 0.05 1.27
6:53 pm 18:53 Cloudy with Rain 63 17.2 62 16.7 97 97 WSW 3 6 30.04 1017 4 6 0.09 2.29
7:53 pm 19:53 Cloudy with Rain 63 17.2 62 16.7 97 97 SSW 8 13 30.01 1016 5 8 0.13 3.30
8:53 pm 20:53 Cloudy with Light Rain 66 18.9 61 16.1 84 84 SSW 22 35 30.00 1016 8 13 0.00 0.03
9:32 pm 21:32 Cloudy with Light Rain 64 18 63 17 94 94 SW 21 33 30.00 1016 8 13 0.00 0.00
9:42 pm 21:42 Cloudy with Heavy Rain 63 17 61 16 94 94 WNW 20 31 30.03 1017 2 3 0.00 0.00
9:53 pm 21:53 Cloudy with Rain 59 15 59 15 100 100 W 18 30 30.06 1018 3 5 0.16 4.06
10:53 pm 22:53 Cloudy 58 14.4 58 14.4 100 100 WSW 7 11 30.06 1018 10 16 0.04 1.02
11:00 pm 23:00 Cloudy 55 13 N/A N/A SW 6 9 30.06 1018 10 16 0.00 0.00
11:53 pm 23:53 Cloudy 56 13.3 46 7.8 70 70 SW 5 7 30.06 1018 10 16 0.00 0.03

Powered by AerisWeather